When you browse on this site, cookies collect data to enhance your experience and personalize the content and advertising you see.
Visit our Privacy Policy to learn more. By continuing to use the site, you agree to this use of cookies and data.

Stündliche Wetter Paralia

Heute, 12 Juli, Sonntag

Zeit Temperatur Niederschläge Wind Luftdruck Luftfeuchtigkeit
00:00 +24°C° 0 mm 1 m/S 746 mmHg 61%
01:00 +24°C° 0 mm 1 m/S 746 mmHg 61%
02:00 +24°C° 0 mm 1 m/S 746 mmHg 61%
03:00 +24°C° 0 mm 1 m/S 746 mmHg 62%
04:00 +23°C° 0 mm 1 m/S 746 mmHg 62%
05:00 +25°C° 0 mm 1 m/S 746 mmHg 56%
06:00 +27°C° 0 mm 1 m/S 746 mmHg 50%
07:00 +29°C° 0 mm 1 m/S 746 mmHg 44%
08:00 +31°C° 0 mm 1 m/S 747 mmHg 39%
09:00 +33°C° 0 mm 1 m/S 747 mmHg 34%
10:00 +36°C° 0 mm 2 m/S 747 mmHg 28%
11:00 +36°C° 0 mm 2 m/S 747 mmHg 28%
12:00 +37°C° 0 mm 3 m/S 746 mmHg 27%
13:00 +37°C° 0 mm 3 m/S 746 mmHg 27%
14:00 +37°C° 0 mm 3 m/S 746 mmHg 30%
15:00 +36°C° 0 mm 3 m/S 746 mmHg 32%
16:00 +35°C° 0 mm 3 m/S 745 mmHg 35%
17:00 +32°C° 0 mm 2 m/S 745 mmHg 43%
18:00 +30°C° 0 mm 1 m/S 746 mmHg 51%
19:00 +28°C° 0 mm 1 m/S 746 mmHg 59%
20:00 +27°C° 0 mm 1 m/S 746 mmHg 59%
21:00 +27°C° 0 mm 1 m/S 746 mmHg 59%
22:00 +27°C° 0 mm 1 m/S 746 mmHg 58%
23:00 +26°C° 0 mm 1 m/S 746 mmHg 59%

Morgen, 13 Juli, Montag

Zeit Temperatur Niederschläge Wind Luftdruck Luftfeuchtigkeit
00:00 +26°C° 0 mm 1 m/S 746 mmHg 59%
01:00 +26°C° 0 mm 1 m/S 746 mmHg 60%
02:00 +26°C° 0 mm 1 m/S 745 mmHg 61%
03:00 +26°C° 0 mm 1 m/S 745 mmHg 61%
04:00 +25°C° 0 mm 1 m/S 745 mmHg 62%
05:00 +27°C° 0 mm 1 m/S 745 mmHg 56%
06:00 +29°C° 0 mm 1 m/S 745 mmHg 51%
07:00 +31°C° 0 mm 1 m/S 746 mmHg 46%
08:00 +32°C° 0 mm 2 m/S 746 mmHg 42%
09:00 +34°C° 0 mm 2 m/S 746 mmHg 39%
10:00 +36°C° 0 mm 3 m/S 746 mmHg 36%
11:00 +35°C° 0 mm 3 m/S 746 mmHg 37%
12:00 +35°C° 0 mm 3 m/S 745 mmHg 37%
13:00 +35°C° 0 mm 3 m/S 745 mmHg 38%
14:00 +34°C° 0 mm 3 m/S 745 mmHg 42%
15:00 +33°C° 0 mm 3 m/S 745 mmHg 46%
16:00 +31°C° 0 mm 2 m/S 745 mmHg 49%
17:00 +30°C° 0 mm 3 m/S 745 mmHg 55%
18:00 +29°C° 0 mm 3 m/S 745 mmHg 61%
19:00 +27°C° 0 mm 3 m/S 745 mmHg 67%
20:00 +27°C° 0 mm 3 m/S 745 mmHg 68%
21:00 +26°C° 0 mm 3 m/S 746 mmHg 69%
22:00 +26°C° 0 mm 3 m/S 746 mmHg 70%
23:00 +25°C° 0 mm 3 m/S 746 mmHg 70%

übermorgen, 14 Juli, Dienstag

Zeit Temperatur Niederschläge Wind Luftdruck Luftfeuchtigkeit
00:00 +25°C° 0 mm 3 m/S 746 mmHg 70%
01:00 +25°C° 0 mm 4 m/S 746 mmHg 69%
02:00 +23°C° 0 mm 4 m/S 746 mmHg 70%
03:00 +22°C° 0 mm 4 m/S 746 mmHg 71%
04:00 +22°C° 0 mm 4 m/S 746 mmHg 72%
05:00 +23°C° 0 mm 4 m/S 746 mmHg 67%
06:00 +25°C° 0 mm 4 m/S 747 mmHg 61%
07:00 +27°C° 0 mm 4 m/S 747 mmHg 56%
08:00 +28°C° 0 mm 4 m/S 747 mmHg 51%
09:00 +30°C° 0 mm 4 m/S 747 mmHg 46%
10:00 +32°C° 0 mm 4 m/S 747 mmHg 41%
11:00 +32°C° 0 mm 4 m/S 747 mmHg 42%
12:00 +32°C° 0 mm 4 m/S 747 mmHg 42%
13:00 +32°C° 0 mm 4 m/S 747 mmHg 43%
14:00 +31°C° 0.1 mm 3 m/S 747 mmHg 44%
15:00 +31°C° 0.1 mm 3 m/S 746 mmHg 46%
16:00 +30°C° 0.1 mm 3 m/S 746 mmHg 48%
17:00 +29°C° 0.1 mm 2 m/S 746 mmHg 54%
18:00 +27°C° 0.1 mm 2 m/S 747 mmHg 60%
19:00 +25°C° 0.1 mm 2 m/S 747 mmHg 66%
20:00 +25°C° 0 mm 2 m/S 747 mmHg 68%
21:00 +24°C° 0 mm 2 m/S 747 mmHg 70%
22:00 +23°C° 0 mm 2 m/S 748 mmHg 72%
23:00 +23°C° 0 mm 2 m/S 748 mmHg 71%

15 Juli, Mittwoch

Zeit Temperatur Niederschläge Wind Luftdruck Luftfeuchtigkeit
00:00 +23°C° 0 mm 2 m/S 748 mmHg 70%
01:00 +21°C° 0 mm 2 m/S 748 mmHg 70%
02:00 +21°C° 0 mm 2 m/S 748 mmHg 69%
03:00 +21°C° 0 mm 2 m/S 747 mmHg 68%
04:00 +21°C° 0 mm 2 m/S 747 mmHg 67%
05:00 +23°C° 0 mm 2 m/S 748 mmHg 60%
06:00 +25°C° 0 mm 2 m/S 748 mmHg 52%
07:00 +27°C° 0 mm 2 m/S 748 mmHg 45%
08:00 +29°C° 0 mm 2 m/S 748 mmHg 42%
09:00 +30°C° 0 mm 2 m/S 749 mmHg 39%
10:00 +32°C° 0 mm 2 m/S 749 mmHg 36%
11:00 +33°C° 0 mm 3 m/S 749 mmHg 36%
12:00 +33°C° 0 mm 3 m/S 748 mmHg 35%
13:00 +33°C° 0 mm 4 m/S 748 mmHg 35%
14:00 +33°C° 0 mm 4 m/S 748 mmHg 39%
15:00 +32°C° 0 mm 4 m/S 748 mmHg 43%
16:00 +32°C° 0 mm 4 m/S 748 mmHg 47%
17:00 +29°C° 0 mm 3 m/S 748 mmHg 57%
18:00 +27°C° 0 mm 3 m/S 748 mmHg 67%
19:00 +25°C° 0 mm 2 m/S 748 mmHg 78%
20:00 +24°C° 0 mm 2 m/S 748 mmHg 81%
21:00 +24°C° 0 mm 2 m/S 748 mmHg 84%
22:00 +23°C° 0 mm 1 m/S 748 mmHg 87%
23:00 +23°C° 0 mm 1 m/S 748 mmHg 87%

16 Juli, Donnerstag

Zeit Temperatur Niederschläge Wind Luftdruck Luftfeuchtigkeit
00:00 +23°C° 0 mm 1 m/S 748 mmHg 87%
01:00 +22°C° 0 mm 1 m/S 747 mmHg 87%
02:00 +22°C° 0 mm 1 m/S 747 mmHg 86%
03:00 +22°C° 0 mm 1 m/S 747 mmHg 85%
04:00 +22°C° 0 mm 1 m/S 747 mmHg 84%
05:00 +24°C° 0 mm 1 m/S 747 mmHg 76%
06:00 +26°C° 0 mm 1 m/S 747 mmHg 68%
07:00 +28°C° 0 mm 1 m/S 747 mmHg 61%
08:00 +29°C° 0 mm 1 m/S 747 mmHg 55%
09:00 +31°C° 0 mm 2 m/S 747 mmHg 49%
10:00 +32°C° 0 mm 2 m/S 747 mmHg 44%
11:00 +34°C° 0 mm 3 m/S 746 mmHg 41%
12:00 +34°C° 0 mm 3 m/S 746 mmHg 39%
13:00 +35°C° 0 mm 4 m/S 746 mmHg 37%
14:00 +34°C° 0 mm 4 m/S 745 mmHg 38%
15:00 +33°C° 0 mm 4 m/S 745 mmHg 40%
16:00 +33°C° 0 mm 4 m/S 745 mmHg 41%
17:00 +30°C° 0 mm 4 m/S 745 mmHg 49%
18:00 +28°C° 0 mm 3 m/S 745 mmHg 57%
19:00 +25°C° 0 mm 2 m/S 744 mmHg 65%
20:00 +25°C° 0 mm 2 m/S 745 mmHg 67%
21:00 +24°C° 0 mm 2 m/S 745 mmHg 70%
22:00 +24°C° 0 mm 1 m/S 745 mmHg 72%
23:00 +24°C° 0 mm 1 m/S 744 mmHg 72%

17 Juli, Freitag

Zeit Temperatur Niederschläge Wind Luftdruck Luftfeuchtigkeit
00:00 +23°C° 0 mm 1 m/S 744 mmHg 72%
01:00 +23°C° 0 mm 1 m/S 744 mmHg 71%
02:00 +23°C° 0 mm 1 m/S 744 mmHg 71%
03:00 +23°C° 0 mm 1 m/S 744 mmHg 70%
04:00 +23°C° 0 mm 1 m/S 743 mmHg 70%
05:00 +25°C° 0 mm 1 m/S 744 mmHg 62%
06:00 +25°C° 0 mm 0 m/S 744 mmHg 55%
07:00 +28°C° 0 mm 0 m/S 744 mmHg 47%
08:00 +31°C° 0 mm 1 m/S 744 mmHg 44%
09:00 +32°C° 0 mm 1 m/S 744 mmHg 40%
10:00 +35°C° 0 mm 2 m/S 744 mmHg 37%
11:00 +35°C° 0 mm 2 m/S 744 mmHg 36%
12:00 +35°C° 0 mm 3 m/S 744 mmHg 35%
13:00 +35°C° 0 mm 4 m/S 743 mmHg 35%
14:00 +35°C° 0 mm 3 m/S 743 mmHg 36%
15:00 +34°C° 0 mm 3 m/S 743 mmHg 38%
16:00 +33°C° 0 mm 3 m/S 743 mmHg 39%
17:00 +30°C° 0 mm 2 m/S 743 mmHg 47%
18:00 +28°C° 0 mm 2 m/S 743 mmHg 54%
19:00 +26°C° 0 mm 1 m/S 743 mmHg 61%
20:00 +26°C° 0 mm 1 m/S 744 mmHg 63%
21:00 +25°C° 0 mm 1 m/S 744 mmHg 65%
22:00 +25°C° 0 mm 1 m/S 744 mmHg 67%
23:00 +25°C° 0 mm 1 m/S 744 mmHg 68%
Mehr zeigen